Change the Weather History Date:

Monday, March 18, 2013

  Actual Average Record
Temperature  
Mean Temperature 44 °F -  
Max Temperature 56 °F 62 °F 86 °F (1989)
Min Temperature 32 °F 32 °F 10 °F (1965)
Degree Days  
Heating Degree Days 21    
Moisture  
Dew Point 23 °F    
Average Humidity 47    
Maximum Humidity 90    
Minimum Humidity 20    
Precipitation  
Precipitation 0.00 in - - ()
Sea Level Pressure  
Sea Level Pressure 29.92 in    
Wind  
Wind Speed 11 mph (NE)    
Max Wind Speed 21 mph    
Max Gust Speed 24 mph    
Visibility 10 miles    
Events      
Averages and records for this station are not official NWS values.
T = Trace of Precipitation, MM = Missing Value Source: NWS Daily Summary

Daily Weather History Graph

Daily Weather History Graph

Search for Another Location

Airport or City:

Trip Planner

Search our weather history database for the weather conditions in past years. The results will help you decide how hot, cold, wet, or windy it might be!

Date:

Astronomy

Mar. 18, 2013 Rise Set
Actual Time 7:50 AM CDT 7:54 PM CDT
Civil Twilight 7:24 AM CDT 8:19 PM CDT
Nautical Twilight 6:54 AM CDT 8:49 PM CDT
Astronomical Twilight 6:25 AM CDT 9:19 PM CDT
Moon 12:02 PM CDT (3/18) 1:44 AM CDT (3/18)
Length of Visible Light 12h 55m
Length of Day
12h 04m
Waxing Crescent, 41% of the Moon is Illuminated
Mar 18
Waxing Crescent
Mar 19
First Quarter
Mar 27
Full
Apr 2
Last Quarter
Apr 10
New

Hourly Weather History & Observations

Time (CDT) Temp. Windchill Dew Point Humidity Pressure Visibility Wind Dir Wind Speed Gust Speed Precip Events Conditions
12:15 AM 45.9 °F 39.4 °F 35.2 °F 66% 29.62 in 10.0 mi SSW 15.0 mph - N/A   Clear
12:35 AM 45.1 °F 38.8 °F 35.1 °F 68% 29.62 in 10.0 mi SSW 13.8 mph 17.3 mph N/A   Clear
12:55 AM 45.9 °F 40.0 °F 34.0 °F 63% 29.64 in 10.0 mi SW 12.7 mph - N/A   Clear
1:15 AM 45.5 °F 40.8 °F 33.1 °F 62% 29.65 in 10.0 mi West 9.2 mph - N/A   Clear
1:35 AM 47.1 °F - 31.3 °F 54% 29.66 in 10.0 mi West 10.4 mph - N/A   Clear
1:55 AM 45.0 °F 40.1 °F 31.1 °F 58% 29.68 in 10.0 mi WNW 9.2 mph - N/A   Clear
2:15 AM 43.0 °F 36.8 °F 31.5 °F 64% 29.69 in 10.0 mi West 11.5 mph - N/A   Clear
2:35 AM 42.4 °F 35.7 °F 31.5 °F 65% 29.73 in 10.0 mi WNW 12.7 mph - N/A   Clear
2:55 AM 41.0 °F 35.2 °F 31.6 °F 69% 29.73 in 10.0 mi NW 9.2 mph - N/A   Clear
3:15 AM 39.6 °F 33.0 °F 32.0 °F 74% 29.75 in 10.0 mi NW 10.4 mph - N/A   Clear
3:35 AM 41.4 °F 34.3 °F 33.3 °F 73% 29.75 in 10.0 mi NNW 12.7 mph - N/A   Clear
3:55 AM 41.2 °F 33.4 °F 33.8 °F 75% 29.78 in 10.0 mi North 15.0 mph - N/A   Clear
4:15 AM 40.1 °F 31.3 °F 33.1 °F 76% 29.80 in 10.0 mi North 17.3 mph - N/A   Clear
4:35 AM 38.5 °F 30.7 °F 32.9 °F 80% 29.83 in 10.0 mi North 12.7 mph - N/A   Clear
4:55 AM 37.4 °F 29.8 °F 32.9 °F 84% 29.85 in 10.0 mi North 11.5 mph - N/A   Clear
5:15 AM 36.5 °F 26.7 °F 33.1 °F 87% 29.86 in 7.0 mi North 17.3 mph 23.0 mph N/A   Clear
5:35 AM 35.6 °F 26.6 °F 32.4 °F 88% 29.87 in 7.0 mi NNE 13.8 mph - N/A   Clear
5:55 AM 34.7 °F 25.1 °F 32.0 °F 90% 29.88 in 5.0 mi North 15.0 mph - N/A   Clear
6:15 AM 35.6 °F 26.6 °F 32.0 °F 87% 29.89 in 7.0 mi NNE 13.8 mph - N/A   Clear
6:35 AM 35.1 °F 26.4 °F 31.6 °F 87% 29.89 in 7.0 mi North 12.7 mph - N/A   Clear
6:55 AM 34.7 °F 26.9 °F 30.9 °F 86% 29.92 in 7.0 mi North 10.4 mph - N/A   Clear
7:15 AM 34.3 °F 25.0 °F 29.3 °F 82% 29.94 in 10.0 mi North 13.8 mph - N/A   Clear
7:55 AM 32.4 °F 27.9 °F 26.8 °F 80% 29.96 in 10.0 mi North 4.6 mph - N/A   Clear
8:15 AM 32.5 °F 24.2 °F 26.2 °F 78% 29.96 in 10.0 mi NNE 10.4 mph - N/A   Clear
8:35 AM 35.8 °F 29.4 °F 25.5 °F 66% 29.98 in 10.0 mi NNE 8.1 mph - N/A   Clear
8:55 AM 37.2 °F 30.0 °F 25.9 °F 64% 29.98 in 10.0 mi NNE 10.4 mph - N/A   Clear
9:15 AM 38.8 °F 31.6 °F 24.6 °F 57% 30.00 in 10.0 mi North 11.5 mph - N/A   Clear
9:35 AM 40.3 °F 32.6 °F 23.9 °F 52% 30.01 in 10.0 mi NNE 13.8 mph 17.3 mph N/A   Clear
9:55 AM 41.0 °F 33.1 °F 22.8 °F 48% 30.00 in 10.0 mi NNE 15.0 mph - N/A   Clear
10:15 AM 41.9 °F 32.8 °F 20.8 °F 43% 30.01 in 10.0 mi NE 20.7 mph 24.2 mph N/A   Clear
10:35 AM 43.7 °F 37.3 °F 20.3 °F 39% 30.03 in 10.0 mi NNE 12.7 mph 19.6 mph N/A   Clear
10:55 AM 44.4 °F 37.2 °F 19.8 °F 37% 30.03 in 10.0 mi NNE 16.1 mph 21.9 mph N/A   Clear
11:15 AM 44.6 °F 38.4 °F 19.4 °F 37% 30.03 in 10.0 mi NNE 12.7 mph 21.9 mph N/A   Clear
11:35 AM 45.7 °F 40.6 °F 19.2 °F 35% 30.04 in 10.0 mi NNE 10.4 mph - N/A   Clear
11:55 AM 46.6 °F - 17.4 °F 31% 30.03 in 10.0 mi NNE 16.1 mph 19.6 mph N/A   Clear
12:15 PM 47.8 °F - 16.9 °F 29% 30.04 in 10.0 mi NNE 11.5 mph - N/A   Clear
12:35 PM 48.9 °F - 16.2 °F 27% 30.03 in 10.0 mi NE 11.5 mph 18.4 mph N/A   Clear
12:55 PM 49.6 °F - 17.1 °F 27% 30.03 in 10.0 mi NE 13.8 mph 18.4 mph N/A   Clear
1:15 PM 50.2 °F - 15.6 °F 25% 30.03 in 10.0 mi NNE 10.4 mph 16.1 mph N/A   Clear
1:35 PM 50.5 °F - 15.6 °F 25% 30.02 in 10.0 mi North 8.1 mph - N/A   Clear
1:55 PM 50.9 °F - 14.7 °F 24% 30.02 in 10.0 mi NE 10.4 mph - N/A   Clear
2:15 PM 51.1 °F - 14.0 °F 23% 30.01 in 10.0 mi NE 10.4 mph - N/A   Clear
2:35 PM 51.8 °F - 12.4 °F 21% 30.01 in 10.0 mi NNE 5.8 mph - N/A   Clear
3:15 PM 53.1 °F - 12.9 °F 20% 30.00 in 10.0 mi South 3.5 mph - N/A   Unknown
3:35 PM 53.8 °F - 13.3 °F 20% 30.00 in 10.0 mi NE 3.5 mph - N/A   Clear
3:55 PM 54.1 °F - 13.6 °F 20% 30.00 in 10.0 mi South 4.6 mph - N/A   Clear
4:15 PM 54.7 °F - 13.8 °F 20% 29.99 in 10.0 mi South 4.6 mph - N/A   Clear
4:35 PM 55.4 °F - 14.5 °F 20% 29.99 in 10.0 mi WNW 5.8 mph - N/A   Clear
4:55 PM 55.9 °F - 14.7 °F 20% 29.98 in 10.0 mi ESE 4.6 mph - N/A   Clear
5:15 PM 56.1 °F - 14.7 °F 20% 29.97 in 10.0 mi Calm Calm - N/A   Clear
5:35 PM 56.7 °F - 16.0 °F 20% 29.97 in 10.0 mi West 5.8 mph - N/A   Clear
5:55 PM 56.3 °F - 16.0 °F 21% 29.97 in 10.0 mi West 5.8 mph - N/A   Clear
6:15 PM 55.9 °F - 15.8 °F 21% 29.96 in 10.0 mi Calm Calm - N/A   Clear
6:35 PM 55.9 °F - 16.2 °F 21% 29.96 in 10.0 mi SSW 3.5 mph - N/A   Clear
6:55 PM 55.2 °F - 16.2 °F 22% 29.96 in 10.0 mi SE 3.5 mph - N/A   Clear
7:15 PM 54.5 °F - 16.5 °F 22% 29.95 in 10.0 mi SE 4.6 mph - N/A   Clear
7:35 PM 52.2 °F - 18.1 °F 26% 29.95 in 10.0 mi SSE 5.8 mph - N/A   Clear
7:55 PM 50.4 °F - 18.5 °F 28% 29.95 in 10.0 mi SE 6.9 mph - N/A   Clear
8:15 PM 48.2 °F - 18.5 °F 31% 29.94 in 10.0 mi SE 10.4 mph - N/A   Clear
8:35 PM 46.9 °F - 19.0 °F 33% 29.93 in 10.0 mi SE 10.4 mph - N/A   Clear
8:55 PM 46.6 °F - 19.0 °F 33% 29.93 in 10.0 mi SE 10.4 mph - N/A   Clear
9:15 PM 45.5 °F 40.3 °F 19.0 °F 35% 29.94 in 10.0 mi SE 10.4 mph - N/A   Clear
9:35 PM 44.6 °F 39.2 °F 19.8 °F 37% 29.94 in 10.0 mi SE 10.4 mph - N/A   Clear
9:55 PM 44.6 °F 38.4 °F 19.2 °F 36% 29.94 in 10.0 mi SE 12.7 mph - N/A   Clear
10:15 PM 43.7 °F 38.6 °F 19.8 °F 38% 29.95 in 10.0 mi SE 9.2 mph - N/A   Clear
10:55 PM 42.1 °F 36.1 °F 20.7 °F 42% 29.96 in 10.0 mi ESE 10.4 mph - N/A   Clear
11:15 PM 42.8 °F 36.2 °F 20.7 °F 41% 29.96 in 10.0 mi SE 12.7 mph - N/A   Clear
11:35 PM 42.1 °F 35.2 °F 21.7 °F 44% 29.96 in 10.0 mi SE 12.7 mph - N/A   Clear
11:55 PM 41.0 °F 34.3 °F 22.3 °F 47% 29.96 in 10.0 mi SE 11.5 mph - N/A   Clear